カタログに戻る

YANTAI-2

運用中科学SSO
NORAD 58918·PAYLOAD·🇨🇳 China
この衛星名は、まだ公式ソースで確認されていません。

打ち上げ Feb 3, 2024 から South China Sea Launch Area

Loading…

次のパス (今後24時間)

TLE

最新Source: Space-Track

元期: Sep 14, 2026, 23:13 UTC

1 58918U 24024B   26257.96785811  .00006058  00000-0  27322-3 0  9998
2 58918  97.2976 321.5763 0016016 190.1020 169.9897 15.21263235144993

AllMySatでYANTAI-2をリアルタイム追跡

Download on the App Store